This is the latest recevied weather packets stored in our database for station/object WW1TA. If no packets are shown the sender has not sent any weather packets the latest 1 day(s).
| Time | Temp. | Humidity | Pressure | Rain* | Wind** | Luminosity | Snow |
|---|---|---|---|---|---|---|---|
| 1778065373 | 15.56° C | 98% | 1018.1 hPa | 0 mm | - | 16 W/m² | - |
| 1778064464 | 15.56° C | 98% | 1017.9 hPa | 0 mm | - | 9 W/m² | - |
| 1778063556 | 15.56° C | 97% | 1017.9 hPa | 0 mm | - | 1 W/m² | - |
| 1778062648 | 15.56° C | 97% | 1017.7 hPa | 0 mm | - | 0 W/m² | - |
| 1778061741 | 15.56° C | 97% | 1017.7 hPa | 0 mm | - | 0 W/m² | - |
| 1778061135 | 16.11° C | 97% | 1017.7 hPa | 0 mm | - | 0 W/m² | - |
| 1778060229 | 16.11° C | 96% | 1017.7 hPa | 0 mm | - | 0 W/m² | - |
| 1778059925 | 16.11° C | 96% | 1017.8 hPa | 0 mm | - | 0 W/m² | - |
| 1778059623 | 16.11° C | 96% | 1017.7 hPa | 0 mm | - | 0 W/m² | - |
| 1778058413 | 16.11° C | 95% | 1017.8 hPa | 0 mm | - | 0 W/m² | - |
| 1778057806 | 16.67° C | 94% | 1017.8 hPa | 0 mm | - | 0 W/m² | - |
| 1778057199 | 17.22° C | 95% | 1017.8 hPa | 0 mm | - | 0 W/m² | - |
| 1778056896 | 16.67° C | 94% | 1018 hPa | 0 mm | - | 0 W/m² | - |
| 1778056593 | 16.67° C | 94% | 1018 hPa | 0 mm | - | 0 W/m² | - |
| 1778056291 | 16.67° C | 94% | 1017.9 hPa | 0 mm | - | 0 W/m² | - |
| 1778054776 | 17.22° C | 93% | 1017.9 hPa | 0 mm | - | 0 W/m² | - |
| 1778053565 | 17.22° C | 92% | 1017.7 hPa | 0 mm | - | 0 W/m² | - |
| 1778052353 | 17.78° C | 90% | 1017.5 hPa | 0 mm | - | 0 W/m² | - |
| 1778051446 | 17.78° C | 90% | 1017.7 hPa | 0 mm | - | 0 W/m² | - |
| 1778051143 | 17.78° C | 90% | 1017.7 hPa | 0 mm | - | 0 W/m² | - |
| 1778050840 | 17.78° C | 90% | 1017.7 hPa | 0 mm | - | 0 W/m² | - |
| 1778050538 | 17.78° C | 90% | 1017.7 hPa | 0 mm | - | 0 W/m² | - |
| 1778050234 | 17.78° C | 90% | 1017.9 hPa | 0 mm | - | 0 W/m² | - |
| 1778048417 | 16.11° C | 94% | 1018.1 hPa | 0 mm | - | 0 W/m² | - |
| 1778048113 | 16.11° C | 94% | 1017.8 hPa | 0 mm | - | 0 W/m² | - |
* Rain latest hour (hover to see other rain measurements)
** Current wind speed in m/s (hover to see current wind gust speed)